Location: Nashville
(36.1660°N, 86.7840°W)
Time: 12:49:32
(UTC-05:00)

BEESAT - Visible Passes

Search period start: 17 May 2022 00:00
Search period end: 27 May 2022 00:00
Orbit: 699 x 708 km, 98.6° (Epoch: 17 May)

Date Brightness Start Highest point End Pass type
(mag) Time Alt. Az. Time Alt. Az. Time Alt. Az.
17 May ? 20:37:03 10° NNE 20:41:37 45° E 20:46:08 10° S visible
17 May ? 22:15:57 10° NNW 22:18:55 17° WNW 22:21:54 10° WSW visible
18 May ? 21:19:56 10° N 21:24:37 61° WNW 21:29:16 10° SSW visible
19 May ? 20:25:34 10° NNE 20:29:52 33° E 20:34:08 10° SSE visible
19 May ? 22:03:44 10° NNW 22:07:21 22° WNW 22:10:57 10° WSW visible
20 May ? 21:08:10 10° N 21:12:56 82° WNW 21:17:39 10° SSW visible
21 May ? 21:51:41 10° N 21:55:44 29° WNW 21:59:47 10° SW visible
22 May ? 20:56:29 10° NNE 21:01:14 74° ESE 21:05:57 10° S visible
22 May ? 22:37:14 10° NW 22:38:16 11° WNW 22:39:19 10° WNW visible
23 May ? 21:39:43 10° N 21:44:06 38° WNW 21:48:27 10° SW visible
24 May ? 20:44:50 10° NNE 20:49:29 54° E 20:54:07 10° S visible
24 May ? 22:24:12 10° NNW 22:26:43 14° WNW 22:29:13 10° W visible
25 May ? 21:27:50 10° N 21:32:26 51° WNW 21:37:01 10° SSW visible
26 May ? 20:33:16 10° NNE 20:37:44 40° E 20:42:09 10° SSE visible
26 May ? 22:11:50 10° NNW 22:15:07 19° WNW 22:18:24 10° WSW visible
